Home   Weather   52°32'N, 4°43'E   Past weeks
Flag for Netherlands

Past Weather in 52°32'N, 4°43'E, Netherlands — Yesterday and Last 2 Weeks

Now
72 °F

Passing clouds.


Feels Like: 75 °F
Forecast: 76 / 56 °F
Wind: 14 mph from South

Location: Amsterdam Schiphol Airport

Current Time: Jun 17, 2019 at 11:32:48 am

Latest Report: Jun 17, 2019 at 10:55 am


Visibility: N/A

Pressure: 30.12 "Hg

Humidity: 65%

Dew Point: 59 °F

Location of 52°32'N, 4°43'ELocation

Past Weather in 52°32'N, 4°43'E — Graph

°F

52°32'N, 4°43'E Temperature Yesterday

Maximum temperature yesterday: 70 °F (at 4:55 pm)
Minimum temperature yesterday: 52 °F (at 12:55 am)
Average temperature yesterday: 62 °F

High & Low Weather Summary for the Past Weeks

 TemperatureHumidityPressure
High88 °F (Jun 2, 4:25 pm)100% (Jun 4, 10:25 pm)30.21 "Hg (Jun 4, 10:25 pm)
Low48 °F (Jun 7, 1:55 am)31% (Jun 2, 7:55 pm)29.50 "Hg (Jun 4, 9:55 pm)
Average61 °F76%29.88 "Hg
* Reported Jun 2 10:25 am — Jun 17 10:25 am, 52°32'N, 4°43'E. Weather by CustomWeather, © 2019

Note: Actual official high and low records may vary slightly from our data, if they occured in-between our weather recording intervals... More about our weather records

Advertising

52°32'N, 4°43'E Weather History for the Previous 24 Hours

Scroll right to see more
 ConditionsComfort  
Time TempWeatherWind HumidityBarometerVisibility
10:25 am
Mon, Jun 17
70 °FPassing clouds.14 mph64%30.12 "HgN/A
9:55 am68 °FPassing clouds.10 mph69%30.12 "HgN/A
9:25 am68 °FPassing clouds.8 mph73%30.12 "HgN/A
8:55 am66 °FScattered clouds.7 mph73%30.12 "HgN/A
8:25 am64 °FPartly sunny.7 mph73%30.12 "HgN/A
7:55 am63 °FPassing clouds.6 mph77%30.12 "HgN/A
7:25 am59 °FPassing clouds.7 mph88%30.12 "HgN/A
6:55 am57 °FSunny.6 mph88%30.12 "Hg10 mi
6:25 am55 °FSunny.5 mph94%30.12 "Hg10 mi
5:55 am54 °FPassing clouds.3 mph100%30.12 "HgN/A
5:25 am54 °FSunny.5 mph94%30.12 "Hg10 mi
4:55 am54 °FClear.6 mph94%30.12 "Hg10 mi
4:25 am54 °FClear.5 mph94%30.12 "Hg10 mi
3:55 am54 °FPassing clouds.3 mph94%30.12 "HgN/A
3:25 am55 °FClear.5 mph88%30.12 "Hg10 mi
2:55 am55 °FClear.6 mph88%30.12 "Hg10 mi
2:25 am55 °FClear.7 mph88%30.12 "Hg10 mi
1:55 am55 °FClear.6 mph88%30.12 "Hg10 mi
1:25 am55 °FClear.7 mph88%30.12 "Hg10 mi
12:55 am57 °FPassing clouds.8 mph82%30.12 "HgN/A
12:25 am57 °FClear.8 mph82%30.12 "Hg10 mi
11:55 pm
Sun, Jun 16
57 °FClear.8 mph82%30.12 "Hg10 mi
11:25 pm59 °FClear.8 mph82%30.12 "Hg10 mi
10:55 pm59 °FClear.8 mph77%30.12 "Hg10 mi
10:25 pm63 °FClear.9 mph73%30.12 "Hg10 mi
9:55 pm63 °FPassing clouds.10 mph77%30.12 "HgN/A
9:25 pm64 °FPassing clouds.12 mph68%30.12 "HgN/A
8:55 pm64 °FPassing clouds.12 mph73%30.12 "HgN/A
8:25 pm66 °FPassing clouds.14 mph68%30.09 "HgN/A
7:55 pm68 °FPassing clouds.12 mph60%30.09 "HgN/A
7:25 pm68 °FPassing clouds.14 mph60%30.09 "HgN/A
6:55 pm68 °FPassing clouds.9 mph64%30.09 "HgN/A
6:25 pm70 °FPassing clouds.8 mph60%30.09 "HgN/A
5:55 pm70 °FPassing clouds.13 mph60%30.09 "HgN/A
5:25 pm68 °FPassing clouds.7 mph60%30.09 "HgN/A
4:55 pm70 °FPassing clouds.9 mph60%30.09 "HgN/A
4:25 pm68 °FPassing clouds.12 mph60%30.12 "HgN/A
3:55 pm68 °FPassing clouds.13 mph60%30.12 "HgN/A
3:25 pm66 °FScattered clouds.12 mph60%30.12 "HgN/A
2:55 pm66 °FPassing clouds.13 mph64%30.12 "HgN/A
2:25 pm66 °FPassing clouds.15 mph64%30.09 "HgN/A
1:55 pm68 °FPassing clouds.15 mph64%30.09 "HgN/A
1:25 pm64 °FScattered clouds.14 mph73%30.09 "HgN/A
12:55 pm63 °FScattered clouds.14 mph83%30.09 "HgN/A
12:25 pm64 °FScattered clouds.12 mph78%30.09 "HgN/A
11:55 am64 °FSprinkles. Broken clouds.13 mph78%30.09 "HgN/A
11:25 am64 °FBroken clouds.13 mph73%30.07 "HgN/A
Weather by CustomWeather, © 2019

See weather overview